25-07-2023, 00:00:01,    308,    0.0,   11.0,   0.00,   0.00, 1007.0,    0.5, -999.0
25-07-2023, 00:00:11,    308,    0.0,   11.0,   0.00,   0.00, 1007.0,    0.7, -999.0
25-07-2023, 00:00:20,    308,    0.0,   11.0,   0.00,   0.00, 1007.0,    0.3, -999.0
25-07-2023, 00:00:31,    308,    0.0,   11.0,   0.00,   0.00, 1007.0,    0.5, -999.0
25-07-2023, 00:00:41,    309,    0.0,   11.0,   0.00,   0.00, 1007.0,    0.5, -999.0
25-07-2023, 00:00:50,    309,    0.0,   11.0,   0.00,   0.00, 1007.0,    0.6, -999.0
25-07-2023, 00:01:01,    309,    0.0,   10.9,   0.00,   0.00, 1007.0,    0.6, -999.0
25-07-2023, 00:01:11,    309,    0.0,   11.0,   0.00,   0.00, 1007.0,    0.5, -999.0
25-07-2023, 00:01:21,    309,    0.0,   11.0,   0.00,   0.00, 1007.0,    0.6, -999.0
25-07-2023, 00:01:30,    308,    0.0,   11.0,   0.00,   0.00, 1007.0,    0.5, -999.0
25-07-2023, 00:01:41,    308,    0.0,   11.0,   0.00,   0.00, 1007.0,    0.4, -999.0
25-07-2023, 00:01:51,    309,    0.0,   10.9,   0.00,   0.00, 1007.0,    0.6, -999.0
25-07-2023, 00:02:00,    309,    0.0,   11.0,   0.00,   0.00, 1006.9,    0.3, -999.0
25-07-2023, 00:02:10,    309,    0.0,   11.0,   0.00,   0.00, 1006.9,    0.5, -999.0
25-07-2023, 00:02:21,    309,    0.0,   10.9,   0.00,   0.00, 1006.9,    0.3, -999.0
25-07-2023, 00:02:30,    308,    0.0,   11.0,   0.00,   0.00, 1006.9,    0.3, -999.0
25-07-2023, 00:02:40,    308,    0.0,   11.0,   0.00,   0.00, 1006.9,    0.4, -999.0
25-07-2023, 00:02:50,    309,    0.0,   11.0,   0.00,   0.00, 1007.0,    0.5, -999.0
25-07-2023, 00:03:01,    309,    0.0,   11.0,   0.00,   0.00, 1006.9,    0.4, -999.0
25-07-2023, 00:03:10,    309,    0.0,   11.0,   0.00,   0.00, 1006.9,    0.5, -999.0
25-07-2023, 00:03:20,    309,    0.0,   11.0,   0.00,   0.00, 1006.9,    0.6, -999.0
25-07-2023, 00:03:30,    309,    0.0,   11.0,   0.00,   0.00, 1006.9,    0.5, -999.0
25-07-2023, 00:03:40,    309,    0.0,   11.0,   0.00,   0.00, 1006.9,    0.5, -999.0
25-07-2023, 00:03:50,    309,    0.0,   11.0,   0.00,   0.00, 1007.0,    0.4, -999.0
25-07-2023, 00:04:00,    309,    0.0,   10.9,   0.00,   0.00, 1007.0,    0.6, -999.0
25-07-2023, 00:04:10,    309,    0.0,   10.9,   0.00,   0.00, 1007.0,    0.7, -999.0
25-07-2023, 00:04:20,    309,    0.0,   10.8,   0.00,   0.00, 1007.0,    0.6, -999.0
25-07-2023, 00:04:31,    308,    0.0,   11.0,   0.00,   0.00, 1007.0,    0.6, -999.0
25-07-2023, 00:04:40,    309,    0.0,   11.0,   0.00,   0.00, 1007.0,    0.3, -999.0
25-07-2023, 00:04:50,    309,    0.0,   11.0,   0.00,   0.00, 1007.0,    0.4, -999.0
25-07-2023, 00:05:00,    308,    0.0,   10.9,   0.00,   0.00, 1007.0,    0.6, -999.0
25-07-2023, 00:05:10,    309,    0.0,   11.0,   0.00,   0.00, 1006.9,    0.6, -999.0
25-07-2023, 00:05:20,    308,    0.0,   11.0,   0.00,   0.00, 1007.0,    0.5, -999.0
25-07-2023, 00:05:30,    308,    0.0,   11.0,   0.00,   0.00, 1006.9,    0.3, -999.0
25-07-2023, 00:05:40,    309,    0.0,   11.0,   0.00,   0.00, 1007.0,    0.6, -999.0
25-07-2023, 00:05:50,    309,    0.0,   11.0,   0.00,   0.00, 1006.9,    0.4, -999.0
25-07-2023, 00:06:00,    309,    0.0,   11.0,   0.00,   0.00, 1007.0,    0.6, -999.0
25-07-2023, 00:06:10,    308,    0.0,   11.0,   0.00,   0.00, 1007.0,    0.5, -999.0
25-07-2023, 00:06:20,    309,    0.0,   11.0,   0.00,   0.00, 1007.0,    0.5, -999.0
25-07-2023, 00:06:30,    308,    0.0,   11.0,   0.00,   0.00, 1007.0,    0.5, -999.0
25-07-2023, 00:06:40,    309,    0.0,   11.0,   0.00,   0.00, 1007.0,    0.4, -999.0
25-07-2023, 00:06:50,    309,    0.0,   11.0,   0.00,   0.00, 1007.0,    0.7, -999.0
25-07-2023, 00:07:00,    309,    0.0,   11.0,   0.00,   0.00, 1007.0,    0.4, -999.0
25-07-2023, 00:07:10,    308,    0.0,   11.0,   0.00,   0.00, 1007.0,    0.3, -999.0
25-07-2023, 00:07:20,    308,    0.0,   11.0,   0.00,   0.00, 1007.0,    0.4, -999.0
25-07-2023, 00:07:30,    309,    0.0,   11.0,   0.00,   0.00, 1007.0,    0.7, -999.0
25-07-2023, 00:07:40,    309,    0.0,   11.0,   0.00,   0.00, 1007.0,    0.3, -999.0
25-07-2023, 00:07:50,    309,    0.0,   11.0,   0.00,   0.00, 1007.0,    0.5, -999.0
25-07-2023, 00:08:00,    308,    0.0,   11.0,   0.00,   0.00, 1007.0,    0.5, -999.0
25-07-2023, 00:08:10,    309,    0.0,   11.0,   0.00,   0.00, 1007.0,    0.4, -999.0
25-07-2023, 00:08:20,    309,    0.0,   11.1,   0.00,   0.00, 1007.0,    0.6, -999.0
25-07-2023, 00:08:30,    308,    0.0,   11.0,   0.00,   0.00, 1007.0,    0.3, -999.0
25-07-2023, 00:08:40,    308,    0.0,   11.0,   0.00,   0.00, 1007.0,    0.4, -999.0
25-07-2023, 00:08:50,    309,    0.0,   11.1,   0.00,   0.00, 1007.0,    0.3, -999.0
25-07-2023, 00:09:00,    308,    0.0,   11.1,   0.00,   0.00, 1007.0,    0.5, -999.0
25-07-2023, 00:09:10,    309,    0.0,   11.1,   0.00,   0.00, 1007.0,    0.6, -999.0
25-07-2023, 00:09:19,    309,    0.0,   11.0,   0.00,   0.00, 1007.0,    0.4, -999.0
25-07-2023, 00:09:30,    309,    0.0,   11.1,   0.00,   0.00, 1007.0,    0.4, -999.0
25-07-2023, 00:09:40,    309,    0.0,   11.0,   0.00,   0.00, 1007.0,    0.5, -999.0
25-07-2023, 00:09:49,    309,    0.0,   11.0,   0.00,   0.00, 1007.0,    0.8, -999.0
25-07-2023, 00:09:59,    309,    0.0,   11.0,   0.00,   0.00, 1007.0,    0.6, -999.0
25-07-2023, 00:10:10,    308,    0.0,   10.8,   0.00,   0.00, 1006.9,    0.3, -999.0
25-07-2023, 00:10:20,    309,    0.0,   11.0,   0.00,   0.00, 1007.0,    0.2, -999.0
25-07-2023, 00:10:29,    309,    0.0,   11.1,   0.00,   0.00, 1007.0,    0.3, -999.0
25-07-2023, 00:10:39,    309,    0.0,   11.1,   0.00,   0.00, 1006.9,    0.4, -999.0
25-07-2023, 00:10:50,    308,    0.0,   11.0,   0.00,   0.00, 1006.9,    0.5, -999.0
25-07-2023, 00:11:00,    309,    0.0,   11.0,   0.00,   0.00, 1006.9,    0.4, -999.0
25-07-2023, 00:11:09,    308,    0.0,   11.0,   0.00,   0.00, 1006.9,    0.4, -999.0
25-07-2023, 00:11:19,    309,    0.0,   11.1,   0.00,   0.00, 1006.9,    0.4, -999.0
25-07-2023, 00:11:30,    309,    0.0,   11.1,   0.00,   0.00, 1007.0,    0.5, -999.0
25-07-2023, 00:11:39,    308,    0.0,   11.1,   0.00,   0.00, 1006.9,    0.5, -999.0
25-07-2023, 00:11:49,    308,    0.0,   11.1,   0.00,   0.00, 1006.9,    0.5, -999.0
25-07-2023, 00:11:59,    309,    0.0,   11.1,   0.00,   0.00, 1006.9,    0.4, -999.0
25-07-2023, 00:12:09,    308,    0.0,   11.2,   0.00,   0.00, 1006.9,    0.4, -999.0
25-07-2023, 00:12:19,    309,    0.0,   11.2,   0.00,   0.00, 1006.9,    0.3, -999.0
25-07-2023, 00:12:29,    308,    0.0,   11.2,   0.00,   0.00, 1006.9,    0.6, -999.0
25-07-2023, 00:12:40,    308,    0.0,   11.2,   0.00,   0.00, 1006.9,    0.5, -999.0
25-07-2023, 00:12:49,    308,    0.0,   11.2,   0.00,   0.00, 1006.9,    0.5, -999.0
25-07-2023, 00:12:59,    309,    0.0,   11.3,   0.00,   0.00, 1006.9,    0.5, -999.0
25-07-2023, 00:13:09,    309,    0.0,   11.3,   0.00,   0.00, 1006.9,    0.7, -999.0
25-07-2023, 00:13:19,    309,    0.0,   11.3,   0.00,   0.00, 1006.9,    0.3, -999.0
25-07-2023, 00:13:29,    308,    0.0,   11.3,   0.00,   0.00, 1006.9,    0.2, -999.0
25-07-2023, 00:13:39,    308,    0.0,   11.3,   0.00,   0.00, 1006.9,    0.4, -999.0
25-07-2023, 00:13:49,    309,    0.0,   11.4,   0.00,   0.00, 1006.9,    0.8, -999.0
25-07-2023, 00:13:59,    308,    0.0,   11.3,   0.00,   0.00, 1006.9,    0.1, -999.0
25-07-2023, 00:14:09,    309,    0.0,   11.3,   0.00,   0.00, 1006.9,    0.3, -999.0
25-07-2023, 00:14:19,    309,    0.0,   11.3,   0.00,   0.00, 1006.9,    0.6, -999.0
25-07-2023, 00:14:29,    309,    0.0,   11.3,   0.00,   0.00, 1006.9,    0.6, -999.0
25-07-2023, 00:14:39,    309,    0.0,   11.4,   0.00,   0.00, 1006.9,    0.6, -999.0
25-07-2023, 00:14:49,    308,    0.0,   11.3,   0.00,   0.00, 1006.9,    0.6, -999.0
25-07-2023, 00:14:59,    308,    0.0,   11.3,   0.00,   0.00, 1006.9,    0.6, -999.0
25-07-2023, 00:15:09,    308,    0.0,   11.3,   0.00,   0.00, 1006.9,    0.5, -999.0
25-07-2023, 00:15:19,    308,    0.0,   11.3,   0.00,   0.00, 1006.9,    0.7, -999.0
25-07-2023, 00:15:29,    308,    0.0,   11.3,   0.00,   0.00, 1006.9,    0.4, -999.0
25-07-2023, 00:15:39,    309,    0.0,   11.2,   0.00,   0.00, 1006.9,    0.6, -999.0
25-07-2023, 00:15:49,    309,    0.0,   11.3,   0.00,   0.00, 1006.9,    0.2, -999.0
25-07-2023, 00:15:59,    309,    0.0,   11.3,   0.00,   0.00, 1006.9,    0.7, -999.0
25-07-2023, 00:16:09,    308,    0.0,   11.2,   0.00,   0.00, 1006.9,    0.5, -999.0
25-07-2023, 00:16:19,    309,    0.0,   11.2,   0.00,   0.00, 1006.9,    0.0, -999.0
25-07-2023, 00:16:29,    309,    0.0,   11.2,   0.00,   0.00, 1006.9,    0.2, -999.0
25-07-2023, 00:16:39,    308,    0.0,   11.1,   0.00,   0.00, 1006.9,    1.0, -999.0
25-07-2023, 00:16:49,    309,    0.0,   11.1,   0.00,   0.00, 1006.9,    0.2, -999.0
25-07-2023, 00:16:59,    309,    0.0,   11.2,   0.00,   0.00, 1006.9,    0.6, -999.0
25-07-2023, 00:17:09,    309,    0.0,   11.2,   0.00,   0.00, 1006.9,    0.6, -999.0
25-07-2023, 00:17:19,    308,    0.0,   11.2,   0.00,   0.00, 1006.9,    0.4, -999.0
25-07-2023, 00:17:29,    308,    0.0,   11.2,   0.00,   0.00, 1006.9,    0.6, -999.0
25-07-2023, 00:17:39,    308,    0.0,   11.2,   0.00,   0.00, 1006.9,    0.6, -999.0
25-07-2023, 00:17:49,    309,    0.0,   11.2,   0.00,   0.00, 1006.9,    0.4, -999.0
25-07-2023, 00:17:59,    308,    0.0,   11.2,   0.00,   0.00, 1006.9,    0.5, -999.0
25-07-2023, 00:18:09,    309,    0.0,   11.2,   0.00,   0.00, 1006.9,    0.0, -999.0
25-07-2023, 00:18:18,    309,    0.0,   11.2,   0.00,   0.00, 1006.9,    0.0, -999.0
25-07-2023, 00:18:29,    309,    0.0,   11.2,   0.00,   0.00, 1006.9,    0.4, -999.0
25-07-2023, 00:18:39,    309,    0.0,   11.1,   0.00,   0.00, 1006.9,    0.2, -999.0
25-07-2023, 00:18:49,    309,    0.0,   11.1,   0.00,   0.00, 1006.9,    0.3, -999.0
25-07-2023, 00:18:58,    305,    0.0,   11.1,   0.00,   0.00, 1006.9,    0.2, -999.0
25-07-2023, 00:19:09,    309,    0.0,   11.1,   0.00,   0.00, 1006.9,    0.5, -999.0
25-07-2023, 00:19:19,    310,    0.0,   11.1,   0.00,   0.00, 1006.9,    0.7, -999.0
25-07-2023, 00:19:28,    309,    0.0,   11.1,   0.00,   0.00, 1006.9,    0.6, -999.0
25-07-2023, 00:19:38,    309,    0.0,   11.1,   0.00,   0.00, 1006.9,    0.4, -999.0
25-07-2023, 00:19:49,    309,    0.0,   11.1,   0.00,   0.00, 1006.9,    0.6, -999.0
25-07-2023, 00:19:59,    308,    0.0,   11.0,   0.00,   0.00, 1006.9,    0.6, -999.0
25-07-2023, 00:20:08,    308,    0.0,   11.0,   0.00,   0.00, 1006.9,    0.8, -999.0
25-07-2023, 00:20:19,    308,    0.0,   11.1,   0.00,   0.00, 1006.9,    0.2, -999.0
25-07-2023, 00:20:29,    309,    0.0,   11.1,   0.00,   0.00, 1006.9,    0.7, -999.0
25-07-2023, 00:20:38,    308,    0.0,   10.9,   0.00,   0.00, 1006.9,    0.8, -999.0
25-07-2023, 00:20:48,    309,    0.0,   11.0,   0.00,   0.00, 1006.9,    0.0, -999.0
25-07-2023, 00:20:59,    309,    0.0,   11.0,   0.00,   0.00, 1006.9,    0.7, -999.0
25-07-2023, 00:21:08,    309,    0.0,   11.0,   0.00,   0.00, 1006.9,    0.2, -999.0
25-07-2023, 00:21:18,    309,    0.0,   11.0,   0.00,   0.00, 1006.9,    0.5, -999.0
25-07-2023, 00:21:28,    308,    0.0,   10.9,   0.00,   0.00, 1006.9,    1.0, -999.0
25-07-2023, 00:21:39,    309,    0.0,   10.9,   0.00,   0.00, 1006.9,    0.2, -999.0
25-07-2023, 00:21:48,    309,    0.0,   11.0,   0.00,   0.00, 1006.9,    0.1, -999.0
25-07-2023, 00:21:58,    309,    0.0,   11.0,   0.00,   0.00, 1006.9,    0.8, -999.0
25-07-2023, 00:22:08,    309,    0.0,   10.9,   0.00,   0.00, 1006.9,    0.2, -999.0
25-07-2023, 00:22:18,    309,    0.0,   10.9,   0.00,   0.00, 1006.9,    0.0, -999.0
25-07-2023, 00:22:28,    308,    0.0,   10.9,   0.00,   0.00, 1006.9,    0.0, -999.0
25-07-2023, 00:22:38,    308,    0.0,   10.9,   0.00,   0.00, 1006.9,    0.0, -999.0
25-07-2023, 00:22:48,    308,    0.0,   10.9,   0.00,   0.00, 1006.9,    0.0, -999.0
25-07-2023, 00:22:58,    308,    0.0,   10.9,   0.00,   0.00, 1006.9,    0.5, -999.0
25-07-2023, 00:23:08,    308,    0.0,   10.9,   0.00,   0.00, 1006.9,    0.0, -999.0
25-07-2023, 00:23:18,    309,    0.0,   10.9,   0.00,   0.00, 1006.9,    0.9, -999.0
25-07-2023, 00:23:28,    309,    0.0,   10.9,   0.00,   0.00, 1006.9,    0.7, -999.0
25-07-2023, 00:23:38,    309,    0.0,   10.8,   0.00,   0.00, 1006.9,    0.1, -999.0
25-07-2023, 00:23:48,    309,    0.0,   10.9,   0.00,   0.00, 1006.9,    0.5, -999.0
25-07-2023, 00:23:58,    308,    0.0,   10.9,   0.00,   0.00, 1006.9,    0.6, -999.0
25-07-2023, 00:24:08,    309,    0.0,   10.9,   0.00,   0.00, 1006.9,    0.1, -999.0
25-07-2023, 00:24:18,    309,    0.0,   10.9,   0.00,   0.00, 1006.9,    0.1, -999.0
25-07-2023, 00:24:28,    308,    0.0,   10.9,   0.00,   0.00, 1006.9,    0.6, -999.0
25-07-2023, 00:24:38,    309,    0.0,   10.8,   0.00,   0.00, 1006.9,    0.9, -999.0
25-07-2023, 00:24:48,    309,    0.0,   10.8,   0.00,   0.00, 1006.9,    0.8, -999.0
25-07-2023, 00:24:58,    309,    0.0,   10.9,   0.00,   0.00, 1006.9,    0.4, -999.0
25-07-2023, 00:25:08,    309,    0.0,   10.8,   0.00,   0.00, 1007.0,    0.8, -999.0
25-07-2023, 00:25:18,    308,    0.0,   10.8,   0.00,   0.00, 1006.9,    0.1, -999.0
25-07-2023, 00:25:28,    309,    0.0,   10.8,   0.00,   0.00, 1007.0,    0.5, -999.0
25-07-2023, 00:25:38,    308,    0.0,   10.8,   0.00,   0.00, 1006.9,    0.9, -999.0
25-07-2023, 00:25:48,    309,    0.0,   10.8,   0.00,   0.00, 1006.9,    0.5, -999.0
25-07-2023, 00:25:58,    309,    0.0,   10.8,   0.00,   0.00, 1006.9,    0.3, -999.0
25-07-2023, 00:26:08,    308,    0.0,   10.8,   0.00,   0.00, 1006.9,    0.4, -999.0
25-07-2023, 00:26:18,    308,    0.0,   10.8,   0.00,   0.00, 1006.9,    0.4, -999.0
25-07-2023, 00:26:28,    309,    0.0,   10.8,   0.00,   0.00, 1007.0,    0.5, -999.0
25-07-2023, 00:26:38,    308,    0.0,   10.8,   0.00,   0.00, 1006.9,    0.6, -999.0
25-07-2023, 00:26:48,    309,    0.0,   10.8,   0.00,   0.00, 1006.9,    0.3, -999.0
25-07-2023, 00:26:58,    309,    0.0,   10.8,   0.00,   0.00, 1007.0,    0.7, -999.0
25-07-2023, 00:27:08,    309,    0.0,   10.8,   0.00,   0.00, 1007.0,    0.5, -999.0
25-07-2023, 00:27:18,    309,    0.0,   10.8,   0.00,   0.00, 1006.9,    0.6, -999.0
25-07-2023, 00:27:28,    309,    0.0,   10.8,   0.00,   0.00, 1007.0,    0.4, -999.0
25-07-2023, 00:27:38,    314,    0.0,   10.8,   0.00,   0.00, 1006.9,    0.4, -999.0
25-07-2023, 00:27:47,    309,    0.0,   10.8,   0.00,   0.00, 1007.0,    0.3, -999.0
25-07-2023, 00:27:58,    308,    0.0,   10.8,   0.00,   0.00, 1006.9,    0.3, -999.0
25-07-2023, 00:28:08,    309,    0.0,   10.8,   0.00,   0.00, 1006.9,    0.5, -999.0
25-07-2023, 00:28:18,    309,    0.0,   10.8,   0.00,   0.00, 1006.9,    0.3, -999.0
25-07-2023, 00:28:27,    309,    0.0,   10.8,   0.00,   0.00, 1006.9,    0.5, -999.0
25-07-2023, 00:28:38,    308,    0.0,   10.8,   0.00,   0.00, 1006.9,    0.6, -999.0
25-07-2023, 00:28:48,    309,    0.0,   10.9,   0.00,   0.00, 1006.9,    0.4, -999.0
25-07-2023, 00:28:57,    308,    0.0,   10.8,   0.00,   0.00, 1006.9,    0.8, -999.0
25-07-2023, 00:29:07,    309,    0.0,   10.9,   0.00,   0.00, 1006.9,    0.4, -999.0
25-07-2023, 00:29:18,    309,    0.0,   10.7,   0.00,   0.00, 1006.9,    0.5, -999.0
25-07-2023, 00:29:27,    309,    0.0,   10.9,   0.00,   0.00, 1006.9,    0.5, -999.0
25-07-2023, 00:29:37,    309,    0.0,   10.7,   0.00,   0.00, 1007.0,    0.7, -999.0
25-07-2023, 00:29:48,    309,    0.0,   10.7,   0.00,   0.00, 1007.0,    0.3, -999.0
25-07-2023, 00:29:58,    308,    0.0,   10.8,   0.00,   0.00, 1006.9,    0.3, -999.0
25-07-2023, 00:30:07,    310,    0.0,   10.8,   0.00,   0.00, 1006.9,    0.4, -999.0
25-07-2023, 00:30:17,    309,    0.0,   10.8,   0.00,   0.00, 1006.9,    0.4, -999.0
25-07-2023, 00:30:28,    309,    0.0,   10.7,   0.00,   0.00, 1006.9,    0.5, -999.0
25-07-2023, 00:30:37,    309,    0.0,   10.7,   0.00,   0.00, 1006.9,    0.5, -999.0
25-07-2023, 00:30:47,    309,    0.0,   10.8,   0.00,   0.00, 1006.9,    0.3, -999.0
25-07-2023, 00:30:57,    308,    0.0,   10.8,   0.00,   0.00, 1006.9,    0.2, -999.0
25-07-2023, 00:31:07,    309,    0.0,   10.7,   0.00,   0.00, 1006.9,    0.5, -999.0
25-07-2023, 00:31:17,    309,    0.0,   10.7,   0.00,   0.00, 1006.9,    0.3, -999.0
25-07-2023, 00:31:27,    309,    0.0,   10.7,   0.00,   0.00, 1006.9,    0.5, -999.0
25-07-2023, 00:31:37,    308,    0.0,   10.8,   0.00,   0.00, 1006.9,    0.5, -999.0
25-07-2023, 00:31:47,    309,    0.0,   10.8,   0.00,   0.00, 1006.9,    0.5, -999.0
25-07-2023, 00:31:57,    308,    0.0,   10.7,   0.00,   0.00, 1006.9,    0.5, -999.0
25-07-2023, 00:32:07,    308,    0.0,   10.8,   0.00,   0.00, 1006.9,    0.5, -999.0
25-07-2023, 00:32:17,    309,    0.0,   10.8,   0.00,   0.00, 1007.0,    0.6, -999.0
25-07-2023, 00:32:27,    309,    0.0,   10.8,   0.00,   0.00, 1006.9,    0.3, -999.0
25-07-2023, 00:32:37,    308,    0.0,   10.7,   0.00,   0.00, 1006.9,    0.3, -999.0
25-07-2023, 00:32:47,    309,    0.0,   10.7,   0.00,   0.00, 1006.9,    0.3, -999.0
25-07-2023, 00:32:57,    309,    0.0,   10.7,   0.00,   0.00, 1006.9,    0.5, -999.0
25-07-2023, 00:33:07,    309,    0.0,   10.7,   0.00,   0.00, 1006.9,    0.4, -999.0
25-07-2023, 00:33:17,    308,    0.0,   10.8,   0.00,   0.00, 1006.9,    0.4, -999.0
25-07-2023, 00:33:27,    308,    0.0,   10.8,   0.00,   0.00, 1006.9,    0.3, -999.0
25-07-2023, 00:33:37,    309,    0.0,   10.7,   0.00,   0.00, 1006.9,    0.5, -999.0
25-07-2023, 00:33:47,    309,    0.0,   10.8,   0.00,   0.00, 1006.9,    0.6, -999.0
25-07-2023, 00:33:57,    309,    0.0,   10.8,   0.00,   0.00, 1006.9,    0.5, -999.0
25-07-2023, 00:34:07,    309,    0.0,   10.8,   0.00,   0.00, 1006.9,    0.4, -999.0
25-07-2023, 00:34:17,    309,    0.0,   10.7,   0.00,   0.00, 1006.9,    0.4, -999.0
25-07-2023, 00:34:27,    309,    0.0,   10.8,   0.00,   0.00, 1006.9,    0.4, -999.0
25-07-2023, 00:34:37,    309,    0.0,   10.8,   0.00,   0.00, 1006.9,    0.5, -999.0
25-07-2023, 00:34:47,    309,    0.0,   10.9,   0.00,   0.00, 1006.9,    0.5, -999.0
25-07-2023, 00:34:57,    308,    0.0,   10.9,   0.00,   0.00, 1006.9,    0.4, -999.0
25-07-2023, 00:35:07,    309,    0.0,   10.9,   0.00,   0.00, 1006.9,    0.6, -999.0
25-07-2023, 00:35:17,    308,    0.0,   10.9,   0.00,   0.00, 1006.9,    0.5, -999.0
25-07-2023, 00:35:27,    309,    0.0,   10.9,   0.00,   0.00, 1006.9,    0.5, -999.0
25-07-2023, 00:35:37,    309,    0.0,   10.9,   0.00,   0.00, 1006.9,    0.6, -999.0
25-07-2023, 00:35:47,    309,    0.0,   10.8,   0.00,   0.00, 1006.9,    0.5, -999.0
25-07-2023, 00:35:57,    309,    0.0,   10.8,   0.00,   0.00, 1006.9,    0.3, -999.0
25-07-2023, 00:36:07,    308,    0.0,   10.9,   0.00,   0.00, 1007.0,    0.3, -999.0
25-07-2023, 00:36:17,    309,    0.0,   10.9,   0.00,   0.00, 1006.9,    0.3, -999.0
25-07-2023, 00:36:27,    309,    0.0,   10.8,   0.00,   0.00, 1006.9,    0.4, -999.0
25-07-2023, 00:36:37,    309,    0.0,   10.8,   0.00,   0.00, 1006.9,    0.4, -999.0
25-07-2023, 00:36:46,    309,    0.0,   10.8,   0.00,   0.00, 1006.9,    0.5, -999.0
25-07-2023, 00:36:57,    309,    0.0,   10.9,   0.00,   0.00, 1006.9,    0.4, -999.0
25-07-2023, 00:37:07,    308,    0.0,   10.9,   0.00,   0.00, 1007.0,    0.6, -999.0
25-07-2023, 00:37:17,    309,    0.0,   10.9,   0.00,   0.00, 1006.9,    0.5, -999.0
25-07-2023, 00:37:26,    309,    0.0,   10.9,   0.00,   0.00, 1006.9,    0.5, -999.0
25-07-2023, 00:37:37,    309,    0.0,   10.9,   0.00,   0.00, 1006.9,    0.4, -999.0
25-07-2023, 00:37:47,    308,    0.0,   10.9,   0.00,   0.00, 1007.0,    0.4, -999.0
25-07-2023, 00:37:56,    309,    0.0,   10.9,   0.00,   0.00, 1006.9,    0.4, -999.0
25-07-2023, 00:38:06,    309,    0.0,   10.9,   0.00,   0.00, 1006.9,    0.5, -999.0
25-07-2023, 00:38:17,    309,    0.0,   10.9,   0.00,   0.00, 1006.9,    0.9, -999.0
25-07-2023, 00:38:27,    309,    0.0,   10.9,   0.00,   0.00, 1006.9,    0.3, -999.0
25-07-2023, 00:38:36,    309,    0.0,   10.8,   0.00,   0.00, 1007.0,    0.4, -999.0
25-07-2023, 00:38:46,    308,    0.0,   10.8,   0.00,   0.00, 1006.9,    0.4, -999.0
25-07-2023, 00:38:57,    309,    0.0,   10.8,   0.00,   0.00, 1006.9,    0.4, -999.0
25-07-2023, 00:39:06,    308,    0.0,   10.9,   0.00,   0.00, 1007.0,    0.3, -999.0
25-07-2023, 00:39:16,    309,    0.0,   10.8,   0.00,   0.00, 1006.9,    0.4, -999.0
25-07-2023, 00:39:26,    309,    0.0,   10.9,   0.00,   0.00, 1007.0,    0.4, -999.0
25-07-2023, 00:39:37,    308,    0.0,   10.9,   0.00,   0.00, 1007.0,    0.4, -999.0
25-07-2023, 00:39:46,    309,    0.0,   10.9,   0.00,   0.00, 1007.0,    0.3, -999.0
25-07-2023, 00:39:56,    309,    0.0,   10.9,   0.00,   0.00, 1007.0,    0.5, -999.0
25-07-2023, 00:40:06,    308,    0.0,   10.9,   0.00,   0.00, 1007.0,    0.6, -999.0
25-07-2023, 00:40:16,    308,    0.0,   10.9,   0.00,   0.00, 1007.0,    0.6, -999.0
25-07-2023, 00:40:26,    308,    0.0,   10.9,   0.00,   0.00, 1007.0,    0.5, -999.0
25-07-2023, 00:40:36,    308,    0.0,   10.9,   0.00,   0.00, 1007.0,    0.3, -999.0
25-07-2023, 00:40:46,    309,    0.0,   10.9,   0.00,   0.00, 1007.0,    0.3, -999.0
25-07-2023, 00:40:56,    309,    0.0,   11.0,   0.00,   0.00, 1007.0,    0.3, -999.0
25-07-2023, 00:41:06,    309,    0.0,   10.8,   0.00,   0.00, 1007.0,    0.3, -999.0
25-07-2023, 00:41:16,    308,    0.0,   10.8,   0.00,   0.00, 1007.0,    0.3, -999.0
25-07-2023, 00:41:26,    309,    0.0,   10.9,   0.00,   0.00, 1007.0,    0.6, -999.0
25-07-2023, 00:41:36,    309,    0.0,   10.9,   0.00,   0.00, 1007.0,    0.7, -999.0
25-07-2023, 00:41:46,    308,    0.0,   10.9,   0.00,   0.00, 1007.0,    0.4, -999.0
25-07-2023, 00:41:56,    308,    0.0,   11.0,   0.00,   0.00, 1007.0,    0.4, -999.0
25-07-2023, 00:42:06,    309,    0.0,   10.9,   0.00,   0.00, 1007.0,    0.6, -999.0
25-07-2023, 00:42:16,    309,    0.0,   10.9,   0.00,   0.00, 1007.0,    0.2, -999.0
25-07-2023, 00:42:26,    308,    0.0,   10.9,   0.00,   0.00, 1007.0,    0.6, -999.0
25-07-2023, 00:42:36,    309,    0.0,   10.9,   0.00,   0.00, 1007.0,    0.4, -999.0
25-07-2023, 00:42:46,    309,    0.0,   10.9,   0.00,   0.00, 1007.0,    0.4, -999.0
25-07-2023, 00:42:56,    308,    0.0,   11.0,   0.00,   0.00, 1007.0,    0.4, -999.0
25-07-2023, 00:43:06,    309,    0.0,   11.0,   0.00,   0.00, 1007.0,    0.3, -999.0
25-07-2023, 00:43:16,    309,    0.0,   10.9,   0.00,   0.00, 1007.0,    0.5, -999.0
25-07-2023, 00:43:26,    309,    0.0,   11.0,   0.00,   0.00, 1007.0,    0.6, -999.0
25-07-2023, 00:43:36,    309,    0.0,   10.8,   0.00,   0.00, 1007.0,    0.5, -999.0
25-07-2023, 00:43:46,    309,    0.0,   10.9,   0.00,   0.00, 1007.0,    0.4, -999.0
25-07-2023, 00:43:56,    309,    0.0,   11.0,   0.00,   0.00, 1007.0,    0.2, -999.0
25-07-2023, 00:44:06,    308,    0.0,   11.0,   0.00,   0.00, 1007.0,    0.4, -999.0
25-07-2023, 00:44:16,    308,    0.0,   10.9,   0.00,   0.00, 1007.0,    0.5, -999.0
25-07-2023, 00:44:26,    309,    0.0,   10.9,   0.00,   0.00, 1007.0,    0.5, -999.0
25-07-2023, 00:44:36,    309,    0.0,   11.0,   0.00,   0.00, 1007.0,    0.7, -999.0
25-07-2023, 00:44:46,    309,    0.0,   11.0,   0.00,   0.00, 1007.0,    0.5, -999.0
25-07-2023, 00:44:56,    309,    0.0,   10.9,   0.00,   0.00, 1007.1,    0.7, -999.0
25-07-2023, 00:45:06,    309,    0.0,   11.0,   0.00,   0.00, 1007.0,    0.5, -999.0
25-07-2023, 00:45:16,    309,    0.0,   11.0,   0.00,   0.00, 1007.0,    0.5, -999.0
25-07-2023, 00:45:26,    309,    0.0,   11.0,   0.00,   0.00, 1007.0,    0.5, -999.0
25-07-2023, 00:45:36,    310,    0.0,   10.9,   0.00,   0.00, 1007.0,    0.4, -999.0
25-07-2023, 00:45:46,    309,    0.0,   10.9,   0.00,   0.00, 1007.0,    0.4, -999.0
25-07-2023, 00:45:55,    308,    0.0,   11.0,   0.00,   0.00, 1007.0,    0.6, -999.0
25-07-2023, 00:46:06,    307,    0.0,   11.0,   0.00,   0.00, 1007.0,    0.4, -999.0
25-07-2023, 00:46:16,    308,    0.0,   11.0,   0.00,   0.00, 1007.0,    0.5, -999.0
25-07-2023, 00:46:26,    309,    0.0,   10.9,   0.00,   0.00, 1007.0,    0.4, -999.0
25-07-2023, 00:46:35,    311,    0.0,   10.9,   0.00,   0.00, 1007.0,    0.2, -999.0
25-07-2023, 00:46:46,    309,    0.0,   11.0,   0.00,   0.00, 1007.0,    0.7, -999.0